Paauilo, HI

10:54 PM HST on February 25, 2017 (GMT -1000)
Bradshaw Army Air Field

Weather History for PHSF - November, 2013

Change the Weather History Date:

Tuesday, November 5, 2013

  Actual Average Record
Temperature  
Mean Temperature 56 °F -  
Max Temperature 68 °F 67 °F 76 °F (2016)
Min Temperature 45 °F 47 °F 44 °F (2008)
Degree Days  
Heating Degree Days 8    
Growing Degree Days 6 (Base 50)    
Moisture  
Dew Point 49 °F    
Average Humidity 77    
Maximum Humidity 94    
Minimum Humidity 48    
Precipitation  
Precipitation 0.00 in - - ()
Sea Level Pressure  
Sea Level Pressure 30.30 in    
Wind  
Wind Speed 4 mph (WNW)    
Max Wind Speed 13 mph    
Max Gust Speed 20 mph    
Visibility 10 miles    
Events      
Averages and records for this station are not official NWS values.
T = Trace of Precipitation, MM = Missing Value Source: NWS Daily Summary

Daily Weather History Graph

Daily Weather History Graph

Search for Another Location

Airport or City:

Trip Planner

Search our weather history database for the weather conditions in past years. The results will help you decide how hot, cold, wet, or windy it might be!

Date:

Astronomy

Nov. 05, 2013 Rise Set
Actual Time 6:25 AM HST 5:45 PM HST
Civil Twilight 6:02 AM HST 6:08 PM HST
Nautical Twilight 5:36 AM HST 6:34 PM HST
Astronomical Twilight 5:10 AM HST 7:00 PM HST
Moon 8:41 AM HST (11/5) 8:09 PM HST (11/5)
Length of Visible Light 12h 05m
Length of Day
11h 20m
Waxing Crescent, 8% of the Moon is Illuminated
Nov 5
Waxing Crescent
Nov 9
First Quarter
Nov 17
Full
Nov 25
Last Quarter
Dec 2
New

Hourly Weather History & Observations

Time (HST) Temp. Dew Point Humidity Pressure Visibility Wind Dir Wind Speed Gust Speed Precip Events Conditions
12:01 AM 51.8 °F 48.2 °F 88% 30.32 in 12.0 mi NW 2.3 mph - N/A   Scattered Clouds
12:56 AM 48.9 °F 45.5 °F 88% 30.31 in 12.0 mi ESE 5.8 mph - N/A   Clear
1:56 AM 48.7 °F 44.4 °F 85% 30.29 in 12.0 mi West 1.2 mph - N/A   Clear
2:56 AM 48.4 °F 46.4 °F 93% 30.28 in 12.0 mi North 2.3 mph - N/A   Clear
3:56 AM 47.5 °F 42.1 °F 82% 30.28 in 12.0 mi ESE 4.6 mph - N/A   Clear
4:56 AM 45.3 °F 40.6 °F 84% 30.28 in 12.0 mi NNE 2.3 mph - N/A   Clear
5:56 AM 50.2 °F 42.8 °F 76% 30.29 in 12.0 mi North 1.2 mph - N/A   Clear
6:46 AM 48.2 °F 41.0 °F 76% 30.30 in 2.8 mi NNE 4.6 mph - N/A   Partly Cloudy
6:51 AM 50.0 °F 41.0 °F 71% 30.30 in 5.0 mi NNE 4.6 mph - N/A   Partly Cloudy
6:56 AM 50.0 °F 41.4 °F 72% 30.30 in 12.0 mi NNE 4.6 mph - N/A   Partly Cloudy
7:56 AM 60.6 °F 44.4 °F 55% 30.32 in 12.0 mi Calm Calm - N/A   Clear
8:56 AM 63.1 °F 43.0 °F 48% 30.32 in 12.0 mi West 5.8 mph - N/A   Mostly Cloudy
9:56 AM 64.9 °F 47.8 °F 54% 30.33 in 12.0 mi West 9.2 mph - N/A   Mostly Cloudy
10:56 AM 66.9 °F 49.8 °F 54% 30.33 in 12.0 mi WSW 8.1 mph 17.3 mph N/A   Clear
11:56 AM 68.5 °F 54.1 °F 60% 30.31 in 12.0 mi West 11.5 mph 19.6 mph N/A   Partly Cloudy
12:56 PM 66.4 °F 55.4 °F 68% 30.29 in 12.0 mi WSW 12.7 mph 19.6 mph N/A   Partly Cloudy
1:57 PM 67.6 °F 55.8 °F 66% 30.27 in 12.0 mi West 11.5 mph 19.6 mph N/A   Partly Cloudy
2:56 PM 64.4 °F 56.3 °F 75% 30.26 in 12.0 mi West 10.4 mph 17.3 mph N/A   Partly Cloudy
3:56 PM 63.5 °F 56.5 °F 78% 30.27 in 12.0 mi West 11.5 mph - N/A   Partly Cloudy
4:56 PM 60.4 °F 55.9 °F 85% 30.29 in 7.0 mi WSW 6.9 mph - N/A   Partly Cloudy
5:56 PM 58.8 °F 55.2 °F 88% 30.30 in 7.0 mi West 4.6 mph - N/A   Scattered Clouds
6:56 PM 56.8 °F 54.1 °F 91% 30.31 in 6.0 mi North 1.2 mph - N/A   Clear
7:26 PM 57.2 °F 55.4 °F 94% 30.33 in 6.0 mi Calm Calm - N/A   Mostly Cloudy
7:56 PM 56.7 °F 53.6 °F 89% 30.33 in 7.0 mi West 2.3 mph - N/A   Mostly Cloudy
8:16 PM 57.2 °F 53.6 °F 88% 30.33 in 7.0 mi ESE 3.5 mph - N/A   Mostly Cloudy
8:56 PM 55.8 °F 51.6 °F 86% 30.33 in 8.0 mi ESE 2.3 mph - N/A   Scattered Clouds
9:56 PM 52.9 °F 48.0 °F 84% 30.34 in 12.0 mi East 1.2 mph - N/A   Partly Cloudy
10:56 PM 55.8 °F 48.4 °F 76% 30.32 in 12.0 mi ESE 3.5 mph - N/A   Mostly Cloudy
11:56 PM 54.9 °F 48.6 °F 79% 30.31 in 12.0 mi SE 4.6 mph - N/A   Mostly Cloudy